sat.trackr.live / text

‹ back to catalog

STARLINK-11676 [DTC]

NORAD 63757 · 2025-089G

PAYLOAD ACTIVE UNKNOWN

§ Identity

Operator
Country
US
Launch date
2025-04-29
Launch site
AFETR
Launch vehicle
Mass (kg)
RCS (m²)

Purposes: comms

External: N2YO · Heavens-Above · Gunter

§ Orbital elements

Epoch: 2026-09-20T18:48:58.647168Z

Period
91.67 min
Inclination
43.0016°
Eccentricity
0.0002431
Mean motion
15.70873115 rev/d
Perigee alt
354.8 km
Apogee alt
358.0 km
Semi-major
6,734.5 km
B*
1.3309e-3
RAAN
195.8453°
Arg perigee
288.6011°
Mean anomaly
71.4593°
Rev number
8,071

§ Raw data

STARLINK-11676 [DTC]1 63757U 25089G   26263.78401212  .00174198  00000+0  13309-2 0  99932 63757  43.0016 195.8453 0002431 288.6011  71.4593 15.70873115 80718

JSON: /api/v1/satellites/63757 · /tle

For live sub-satellite position, see the globe view (requires WebGL).

§ Visibility from observer

Set your observer location to see the next 7 days of passes ≥ 10°. The values pass through the URL so the page stays shareable.

No JS? Fill the form by hand. The geolocation button needs JavaScript.